星链-11531 (STARLINK-11531)

导读

STARLINK-11531是美国太空探索技术公司Starlink星座中的一颗卫星,于2025年1月27日发射入轨。作为星链低轨互联网星座的组成部分,它主要为全球范围内用户提供高速卫星互联网接入服务,覆盖偏远区域、补充地面通信网络,支撑海事、航空等移动场景的网络连接需求,助力星链星座实现全球化服务布局。

基本信息
目录编号:
62841
目录名称:
STARLINK-11531
国际标识:
2025-019N
轨道中心:
EARTH
卫星名称:
星链-11531
卫星全名:
星链-11531 (STARLINK-11531)
卫星状态:
在轨 (已飞行503 天)
发射日期:
2025-01-27 UTC
国别 :
美国 (US)
星等 :
--
轨道信息
数据来源 国际轨道数据
星历时间: 2026-06-14T19:49:42+0800
6小时前
查看轨道信息
半长轴: 6734.345km
偏心率: 0.0004879
轨道倾角: 43.001°
近地点辐角 271.118°
升交点赤经 82.637°
平近点角 88.913°
近地点: 352.922km
远地点: 359.494km
周期: 91.665分钟
每日圈数: 15.709405
详细信息
固有亮度:
5
最大亮度:
2.5
卫星平台:
Starlink V1.0
覆盖范围:
全球
运营商:
太空探索技术公司
运营商所在国:
美国
制造商(研发单位):
太空探索技术公司
制造商所在国:
美国
使用方式:
暂无
卫星简介
Starlink 计划是 SpaceX 推出的全球卫星互联网项目,通过发射低轨道卫星,为全球尤其是偏远地区提供高速、低延迟的互联网服务。自 2019 年起,Starlink 已部署数千颗卫星,旨在缩小全球数字鸿沟,推动互联网普及。该项目还为军事、航空等行业提供通信支持,带来广泛经济效益。
2D轨道图
3D轨道图
轨道高度分析图
轨道倾角分析图
轨道综合分析图
查看轨道综合分析图